Simultaneous Nadir Overpasses (SNOs) Predictions

Prediction of SNOs between METOP-A and NOAA-19 Satellite Orbit:

Table of predicted SNOs for the next 14.0 days since TLE Epoch: 8/11/2017
Index Date (METOP-A) Time (METOP-A) Lat,Lon (METOP-A) SZA (METOP-A ) Date (NOAA-19) Time (NOAA-19) Lat,Lon (NOAA-19) SZA (NOAA-19 ) Distance(km) Time Diff (sec)
1 08/12/2017 08:44:35 -77.93,-123.90 116.93 08/12/2017 08:43:30 -77.90,-127.86 117.03 92.25 65
2 08/12/2017 09:35:25 77.50, 41.39 62.62 08/12/2017 09:34:24 77.49, 41.50 62.61 3.04 61
3 08/12/2017 10:26:07 -77.50,-151.32 117.38 08/12/2017 10:25:21 -77.49,-151.20 117.39 3.15 46
4 08/12/2017 11:16:47 77.48, 15.96 62.62 08/12/2017 11:16:26 77.51, 15.90 62.65 3.51 21
5 08/12/2017 12:07:29 -77.48,-176.75 117.38 08/12/2017 12:07:23 -77.51,-176.80 117.36 3.43 6
6 08/12/2017 12:58:09 77.46, -9.47 62.62 08/12/2017 12:58:27 77.49, -9.50 62.65 3.20 18
7 08/12/2017 13:48:51 -77.46, 157.82 117.38 08/12/2017 13:49:24 -77.48, 157.81 117.35 3.09 33
8 08/12/2017 14:39:31 77.44, -34.90 62.62 08/12/2017 14:40:28 77.47, -34.90 62.65 3.03 57
9 08/12/2017 15:30:13 -77.44, 132.39 117.38 08/12/2017 15:31:25 -77.46, 132.41 117.35 2.90 72
10 08/23/2017 04:03:14 77.53, 124.52 66.12 08/23/2017 04:02:10 77.55, 124.58 66.14 2.79 64
11 08/23/2017 04:53:56 -77.53, -68.15 113.87 08/23/2017 04:53:10 -77.55, -68.15 113.86 1.79 46
12 08/23/2017 05:44:36 77.51, 99.09 66.12 08/23/2017 05:44:11 77.53, 99.18 66.14 3.18 25
13 08/23/2017 06:35:18 -77.51, -93.58 113.87 08/23/2017 06:35:11 -77.53, -93.54 113.85 1.85 7
14 08/23/2017 07:25:57 77.53, 73.86 66.17 08/23/2017 07:26:12 77.51, 73.78 66.15 3.04 15
15 08/23/2017 08:16:40 -77.49,-119.01 113.87 08/23/2017 08:17:12 -77.51,-118.94 113.85 2.18 32
16 08/23/2017 09:07:19 77.51, 48.42 66.17 08/23/2017 09:08:13 77.49, 48.38 66.15 2.75 54
17 08/23/2017 09:58:02 -77.47,-144.44 113.86 08/23/2017 09:59:13 -77.49,-144.34 113.84 2.67 71




NCC Satellite Simultaneous Nadir Overpasses (SNOs) Prediction Service
